QPF
0.00 0.00 0.00 0.00 0.00 0.00 0.00 0.00 0.00 0.00 0.00 0.00 0.00 0.00 0.00 0.00 0.00 0.00 0.00 0.00 0.00 0.00 0.00 0.00 0.00 0.00 0.00 0.00 0.00 0.00 0.00 0.00 0.00 0.00 0.00 0.00 0.00 0.00 0.00 0.00 0.00 0.00 0.00 0.00
0.00 0.00 0.00 0.00 0.00 0.00 0.00 0.00 0.00 0.00 0.00 0.00 0.00 0.00 0.00 0.00 0.00 0.00 0.00 0.00 0.00 0.00 0.00 0.00 0.00 0.00 0.00 0.00 0.00 0.00 0.00 0.00 0.00 0.00 0.00 0.00 0.00 0.00 0.00 0.00 0.00 0.00 0.00 0.00
0.00 0.00 0.00 0.00 0.00 0.00 0.00 0.00 0.00 0.00 0.00 0.00 0.00 0.00 0.00 0.00 0.00 0.00 0.00 0.00 0.00 0.00 0.00 0.00 0.00 0.00 0.00 0.00 0.00 0.00 0.00 0.00 0.00 0.00 0.00 0.00 0.00 0.00 0.00 0.00 0.00 0.00 0.00 0.00
0.00 0.00 0.00 0.00 0.00 0.00 0.00 0.00 0.00 0.00 0.00 0.00 0.00 0.00 0.00 0.00 0.00 0.00 0.00 0.00 0.00 0.00 0.00 0.00 0.00 0.00 0.00 0.00 0.00 0.00 0.00 0.00 0.00 0.00 0.00 0.00 0.00 0.00 0.00 0.00 0.00 0.00 0.00 0.00
0.00 0.00 0.00 0.00 0.00 0.00 0.00 0.00 0.00 0.00 0.00 0.00 0.00 0.00 0.00 0.00 0.00 0.00 0.00 0.00 0.00 0.00 0.00 0.00 0.00 0.00 0.00 0.00 0.00 0.00 0.00 0.00 0.00 0.00 0.00 0.00 0.00 0.00 0.00 0.00 0.00 0.00 0.00 0.00
0.00 0.00 0.00 0.00 0.00 0.00 0.00 0.00 0.00 0.00 0.00 0.00 0.00 0.00 0.00 0.00 0.00 0.00 0.00 0.00 0.00 0.00 0.00 0.00 0.00 0.00 0.00 0.00 0.00 0.00 0.00 0.00 0.00 0.00 0.00 0.00 0.00 0.00 0.00 0.00 0.00 0.00 0.00 0.00
0.00 0.00 0.00 0.00 0.00 0.00 0.00 0.00 0.00 0.00 0.00 0.00 0.00 0.00 0.00 0.00 0.00 0.00 0.00 0.00 0.00 0.00 0.00 0.00 0.00 0.00 0.00 0.00 0.00 0.00 0.00 0.00 0.00 0.00 0.00 0.00 0.00 0.00 0.00 0.00 0.00 0.00 0.00 0.00
0.00 0.00 0.00 0.00 0.00 0.00 0.00 0.00 0.00 0.00 0.00 0.00 0.00 0.00 0.00 0.00 0.00 0.00 0.00 0.00 0.00 0.00 0.00 0.00 0.00 0.00 0.00 0.00 0.00 0.00 0.00 0.00 0.00 0.00 0.00 0.00 0.00 0.00 0.00 0.00 0.00 0.00 0.00 0.00
0.00 0.00 0.00 0.00 0.00 0.00 0.00 0.00 0.00 0.00 0.00 0.00 0.00 0.00 0.00 0.00 0.00 0.00 0.00 0.00 0.00 0.00 0.00 0.00 0.00 0.00 0.00 0.00 0.00 0.00 0.00 0.00 0.00 0.00 0.00 0.00 0.00 0.00 0.00 0.00 0.00 0.00 0.00 0.00
0.00 0.00 0.00 0.00 0.00 0.00 0.00 0.00 0.00 0.00 0.00 0.00 0.00 0.00 0.00 0.00 0.00 0.00 0.00 0.00 0.00 0.00 0.00 0.00 0.00 0.00 0.00 0.00 0.00 0.00 0.00 0.00 0.00 0.00 0.00 0.00 0.00 0.00 0.00 0.00 0.00 0.00 0.00 0.00
0.00 0.00 0.00 0.00 0.00 0.00 0.00 0.00 0.01 0.00 0.00 0.00 0.00 0.00 0.00 0.00 0.00 0.00 0.00 0.00 0.00 0.00 0.00 0.00 0.00 0.00 0.00 0.00 0.00 0.00 0.00 0.00 0.00 0.00 0.00 0.00 0.00 0.00 0.00 0.00 0.00 0.00 0.00 0.00
0.00 0.00 0.00 0.00 0.00 0.00 0.00 0.00 0.00 0.00 0.00 0.00 0.00 0.00 0.00 0.00 0.00 0.00 0.00 0.00 0.00 0.00 0.00 0.00 0.00 0.00 0.00 0.00 0.00 0.00 0.00 0.00 0.00 0.00 0.00 0.00 0.00 0.00 0.00 0.00 0.00 0.00 0.00 0.00
0.01 0.02 0.01 0.00 0.01 0.00 0.00 0.00 0.00 0.02 0.00 0.00 0.00 0.00 0.00 0.00 0.00 0.00 0.00 0.00 0.00 0.00 0.00 0.00 0.00 0.00 0.00 0.00 0.00 0.00 0.00 0.00 0.00 0.00 0.00 0.00 0.00 0.00 0.00 0.00 0.00 0.00 0.00 0.00
0.07 0.03 0.00 0.00 0.00 0.00 0.00 0.00 0.00 0.02 0.01 0.00 0.00 0.00 0.00 0.00 0.00 0.00 0.00 0.00 0.00 0.00 0.00 0.00 0.00 0.00 0.00 0.00 0.00 0.00 0.00 0.00 0.00 0.00 0.00 0.00 0.00 0.00 0.00 0.00 0.00 0.00 0.00 0.00
0.04 0.02 0.00 0.00 0.00 0.00 0.00 0.00 0.01 0.03 0.00 0.00 0.00 0.00 0.00 0.00 0.00 0.00 0.00 0.00 0.00 0.00 0.00 0.00 0.00 0.00 0.00 0.00 0.00 0.00 0.00 0.00 0.00 0.00 0.00 0.00 0.00 0.00 0.00 0.00 0.00 0.00 0.00 0.00
0.01 0.02 0.01 0.00 0.00 0.00 0.00 0.00 0.00 0.00 0.00 0.00 0.00 0.00 0.00 0.00 0.00 0.00 0.00 0.00 0.00 0.00 0.00 0.00 0.00 0.00 0.00 0.00 0.00 0.00 0.00 0.00 0.00 0.00 0.00 0.00 0.00 0.00 0.00 0.00 0.00 0.00 0.00 0.00
0.00 0.01 0.02 0.00 0.00 0.01 0.02 0.00 0.00 0.00 0.00 0.00 0.00 0.00 0.00 0.00 0.00 0.00 0.00 0.00 0.00 0.00 0.00 0.00 0.00 0.00 0.00 0.00 0.00 0.00 0.00 0.00 0.00 0.00 0.00 0.00 0.00 0.00 0.00 0.00 0.00 0.00 0.00 0.00
0.00 0.00 0.00 0.00 0.00 0.02 0.00 0.00 0.00 0.00 0.00 0.00 0.00 0.00 0.00 0.00 0.00 0.00 0.00 0.00 0.00 0.00 0.00 0.00 0.00 0.00 0.00 0.00 0.00 0.00 0.00 0.00 0.00 0.00 0.00 0.00 0.00 0.00 0.00 0.00 0.00 0.00 0.00 0.00
0.00 0.00 0.00 0.00 0.00 0.00 0.00 0.00 0.00 0.00 0.00 0.00 0.00 0.00 0.00 0.00 0.00 0.00 0.00 0.00 0.00 0.00 0.00 0.00 0.00 0.00 0.00 0.00 0.00 0.00 0.00 0.00 0.00 0.00 0.00 0.00 0.00 0.00 0.00 0.00 0.00 0.00 0.00 0.00
0.00 0.00 0.00 0.00 0.01 0.00 0.00 0.00 0.00 0.00 0.00 0.00 0.00 0.00 0.00 0.00 0.00 0.00 0.00 0.00 0.00 0.00 0.00 0.00 0.00 0.00 0.00 0.00 0.00 0.00 0.00 0.00 0.00 0.00 0.00 0.00 0.00 0.00 0.00 0.00 0.00 0.00 0.00 0.00
0.00 0.00 0.00 0.00 0.01 0.00 0.00 0.00 0.00 0.00 0.00 0.00 0.00 0.00 0.00 0.00 0.00 0.00 0.00 0.00 0.00 0.00 0.00 0.00 0.00 0.00 0.00 0.00 0.00 0.00 0.00 0.00 0.00 0.00 0.00 0.00 0.00 0.00 0.00 0.00 0.00 0.00 0.00 0.00
0.01 0.02 0.01 0.01 0.00 0.00 0.00 0.00 0.00 0.00 0.00 0.00 0.00 0.00 0.00 0.00 0.00 0.00 0.00 0.00 0.00 0.00 0.00 0.00 0.00 0.00 0.00 0.00 0.00 0.00 0.00 0.00 0.00 0.00 0.00 0.00 0.00 0.00 0.00 0.00 0.00 0.00 0.00 0.00
0.01 0.01 0.01 0.03 0.01 0.01 0.00 0.00 0.00 0.00 0.00 0.00 0.00 0.00 0.00 0.00 0.00 0.00 0.00 0.00 0.00 0.00 0.00 0.00 0.00 0.00 0.00 0.00 0.00 0.00 0.00 0.00 0.00 0.00 0.00 0.00 0.00 0.00 0.00 0.00 0.00 0.00 0.00 0.00
0.00 0.00 0.01 0.00 0.00 0.00 0.00 0.00 0.00 0.00 0.00 0.00 0.00 0.00 0.00 0.00 0.00 0.00 0.00 0.00 0.00 0.00 0.00 0.00 0.00 0.00 0.00 0.00 0.00 0.00 0.00 0.00 0.00 0.00 0.00 0.00 0.00 0.00 0.00 0.00 0.00 0.00 0.00 0.00
0.00 0.00 0.01 0.01 0.00 0.00 0.00 0.00 0.00 0.00 0.00 0.00 0.00 0.00 0.00 0.00 0.00 0.00 0.00 0.00 0.00 0.00 0.00 0.00 0.00 0.00 0.00 0.00 0.00 0.00 0.00 0.00 0.00 0.00 0.00 0.00 0.00 0.00 0.00 0.00 0.00 0.00 0.00 0.00
0.00 0.00 0.00 0.00 0.00 0.00 0.00 0.00 0.00 0.00 0.00 0.00 0.00 0.00 0.00 0.00 0.00 0.00 0.00 0.00 0.00 0.00 0.00 0.00 0.00 0.00 0.00 0.00 0.00 0.00 0.00 0.00 0.00 0.00 0.00 0.00 0.00 0.00 0.00 0.00 0.00 0.00 0.00 0.00
MSLP
1018.33 1018.86 1018.71 1018.91 1018.94 1019.46 1019.60 1019.98 1019.92 1019.64 1019.35 1019.52 1019.48 1019.55 1019.05 1018.78 1019.08 1019.00 1018.94 1018.84 1018.88 1018.63 1018.11 1018.24 1018.63 1018.88 1019.11 1019.45 1019.53 1019.55 1019.78 1019.88 1019.89 1019.88 1019.78 1019.59 1019.53 1019.49 1019.51 1019.33 1019.11 1018.98 1019.11 1019.14
1019.46 1019.06 1019.23 1019.45 1019.62 1019.76 1020.03 1020.33 1020.40 1020.21 1019.89 1020.27 1020.21 1019.90 1019.46 1019.01 1018.75 1018.52 1018.53 1018.31 1018.17 1018.28 1018.21 1018.41 1018.81 1019.16 1019.22 1019.48 1019.81 1019.98 1020.04 1020.05 1019.93 1019.89 1019.71 1019.58 1019.62 1019.83 1019.88 1019.89 1019.89 1019.80 1019.65 1019.63
1019.28 1019.31 1019.09 1019.62 1019.94 1020.14 1020.41 1020.52 1020.73 1020.83 1020.78 1020.93 1021.03 1020.36 1019.65 1018.62 1018.29 1017.94 1017.77 1017.56 1017.36 1017.39 1017.87 1018.38 1018.93 1019.05 1019.18 1019.43 1019.74 1020.06 1020.13 1020.09 1020.01 1019.98 1019.76 1019.72 1019.79 1020.03 1020.27 1020.38 1020.53 1020.61 1020.44 1020.44
1019.55 1019.10 1019.32 1019.53 1019.82 1020.15 1020.60 1020.58 1020.94 1021.38 1022.01 1022.29 1022.04 1021.12 1019.94 1018.93 1018.18 1017.73 1017.16 1016.76 1016.53 1016.75 1017.17 1017.70 1018.30 1018.90 1019.21 1019.31 1019.72 1019.97 1020.05 1020.02 1020.08 1019.95 1019.66 1019.59 1019.91 1020.51 1020.90 1021.03 1021.26 1021.29 1021.18 1021.15
1018.84 1019.01 1019.27 1019.41 1019.28 1019.84 1020.24 1020.45 1021.06 1021.70 1022.60 1023.15 1023.04 1023.01 1019.57 1019.00 1018.25 1017.14 1016.29 1015.97 1015.87 1016.07 1016.60 1016.96 1017.60 1018.35 1019.05 1019.57 1019.93 1020.14 1020.10 1020.27 1020.31 1020.14 1019.86 1019.94 1020.34 1020.83 1021.21 1021.49 1021.67 1021.82 1021.87 1021.83
1018.72 1018.61 1018.80 1018.78 1019.11 1019.50 1020.10 1020.96 1021.78 1022.49 1023.40 1023.69 1022.96 1023.08 1019.41 1018.61 1017.02 1016.15 1015.55 1015.28 1015.38 1015.62 1015.97 1016.53 1017.35 1018.33 1019.26 1019.81 1020.15 1020.18 1020.37 1020.74 1020.66 1020.53 1020.41 1020.56 1020.92 1021.36 1021.74 1022.10 1022.33 1022.50 1022.55 1022.59
1018.91 1018.82 1018.49 1018.44 1018.96 1019.47 1019.89 1021.09 1022.68 1023.80 1024.40 1023.33 1022.69 1022.57 1018.14 1017.46 1016.26 1015.76 1015.28 1015.02 1015.30 1015.55 1016.23 1016.85 1017.51 1018.25 1019.12 1019.67 1020.07 1020.39 1020.63 1021.04 1021.11 1021.02 1021.00 1021.18 1021.42 1021.68 1022.08 1022.40 1022.68 1022.90 1023.05 1023.23
1018.82 1019.04 1018.30 1018.07 1018.06 1018.40 1019.33 1020.27 1021.41 1022.72 1023.92 1023.45 1022.97 1021.09 1017.86 1016.58 1015.73 1015.30 1014.92 1015.09 1015.37 1015.73 1016.25 1016.79 1017.35 1018.05 1018.84 1019.53 1019.97 1020.32 1020.72 1021.22 1021.42 1021.38 1021.50 1021.74 1022.00 1022.27 1022.53 1022.76 1022.98 1023.20 1023.34 1023.43
1018.36 1018.24 1017.75 1017.86 1017.83 1017.93 1019.27 1019.75 1020.65 1022.20 1023.90 1023.91 1021.98 1019.95 1017.77 1016.07 1015.38 1015.11 1015.08 1015.17 1015.29 1015.68 1016.33 1016.93 1017.61 1018.04 1018.67 1019.41 1019.95 1020.30 1020.76 1021.24 1021.47 1021.49 1021.64 1021.96 1022.23 1022.56 1022.88 1023.10 1023.26 1023.38 1023.47 1023.39
1017.62 1018.18 1018.10 1017.92 1017.95 1018.09 1017.87 1018.94 1020.53 1021.76 1023.25 1023.12 1021.04 1019.76 1017.37 1016.03 1015.46 1014.94 1015.15 1015.20 1015.43 1015.87 1016.51 1017.08 1017.62 1018.20 1018.95 1019.45 1019.89 1020.37 1020.80 1021.17 1021.50 1021.70 1021.88 1022.15 1022.43 1022.77 1023.10 1023.33 1023.53 1023.67 1023.70 1023.67
1017.65 1017.91 1018.80 1018.36 1017.86 1017.57 1018.23 1018.39 1019.13 1020.08 1021.43 1021.51 1020.67 1018.17 1016.02 1015.36 1015.19 1015.07 1015.10 1015.11 1015.39 1015.90 1016.43 1016.95 1017.52 1018.21 1018.83 1019.31 1019.78 1020.18 1020.68 1021.07 1021.44 1021.61 1021.86 1022.22 1022.60 1022.90 1023.22 1023.51 1023.78 1023.94 1023.89 1023.80
1017.82 1018.02 1018.46 1018.18 1017.88 1017.69 1017.41 1017.50 1018.42 1019.12 1020.22 1020.26 1019.49 1016.19 1015.10 1014.91 1014.93 1014.79 1014.79 1014.97 1015.17 1015.71 1016.26 1016.90 1017.63 1018.22 1018.71 1019.20 1019.69 1020.13 1020.58 1020.86 1021.09 1021.40 1021.75 1022.17 1022.51 1022.80 1023.16 1023.48 1023.76 1023.92 1023.92 1023.93
1017.34 1017.81 1018.24 1018.44 1018.51 1018.26 1017.70 1017.64 1017.65 1018.22 1018.90 1018.64 1018.49 1015.12 1014.13 1014.45 1014.81 1014.71 1014.85 1014.92 1015.09 1015.60 1016.25 1016.89 1017.56 1018.05 1018.45 1018.86 1019.33 1019.76 1020.12 1020.52 1020.91 1021.27 1021.61 1022.05 1022.41 1022.72 1023.08 1023.42 1023.68 1023.98 1024.07 1024.28
1018.26 1017.30 1017.22 1016.88 1016.36 1016.94 1017.57 1017.12 1017.20 1017.53 1017.96 1015.99 1016.37 1014.30 1014.59 1014.63 1014.90 1014.86 1014.67 1014.93 1015.03 1015.43 1015.82 1016.39 1017.07 1017.27 1017.81 1018.25 1018.71 1019.26 1019.74 1020.16 1020.65 1021.15 1021.59 1022.03 1022.43 1022.77 1023.10 1023.38 1023.78 1024.15 1024.32 1024.41
1018.32 1017.38 1017.09 1016.33 1016.62 1016.56 1016.21 1016.37 1016.42 1016.80 1015.60 1016.12 1014.27 1014.04 1013.81 1014.40 1014.57 1014.47 1014.27 1014.77 1015.04 1015.25 1015.75 1015.87 1016.14 1016.53 1016.99 1017.66 1018.28 1018.69 1019.11 1019.60 1020.21 1020.91 1021.44 1021.86 1022.33 1022.84 1023.24 1023.56 1023.86 1024.15 1024.38 1024.60
1019.32 1017.83 1017.42 1016.63 1016.26 1016.32 1016.30 1016.08 1015.75 1014.93 1014.70 1015.34 1013.72 1013.10 1012.96 1013.30 1013.84 1014.17 1014.36 1014.68 1014.77 1014.83 1015.06 1015.09 1015.36 1015.76 1016.33 1016.73 1017.09 1017.69 1018.33 1018.88 1019.63 1020.37 1020.99 1021.63 1022.19 1022.78 1023.23 1023.67 1024.00 1024.33 1024.62 1024.87
1018.97 1019.13 1018.50 1016.90 1016.33 1016.39 1015.82 1014.34 1014.03 1014.47 1013.97 1013.47 1013.20 1010.66 1012.54 1012.97 1013.44 1013.38 1014.02 1014.05 1014.00 1014.24 1014.36 1014.42 1014.69 1014.88 1015.01 1015.27 1015.73 1016.54 1017.12 1018.24 1019.17 1019.90 1020.59 1021.25 1021.90 1022.61 1023.22 1023.70 1024.13 1024.42 1024.67 1024.90
1019.42 1018.84 1019.08 1018.00 1017.27 1015.30 1012.70 1012.38 1012.80 1012.62 1011.77 1012.20 1012.12 1011.22 1010.89 1011.07 1012.09 1012.75 1012.85 1012.95 1013.38 1013.52 1013.45 1013.58 1013.82 1013.93 1014.02 1014.25 1015.01 1015.75 1016.61 1017.45 1018.37 1019.23 1019.95 1020.71 1021.48 1022.26 1022.96 1023.55 1023.97 1024.33 1024.59 1024.85
1019.46 1019.90 1018.81 1017.99 1016.90 1015.24 1013.33 1011.65 1011.35 1011.61 1010.74 1011.06 1011.29 1010.07 1009.84 1011.34 1012.22 1012.09 1011.54 1011.89 1012.11 1012.36 1012.48 1012.64 1013.06 1013.50 1013.82 1014.23 1014.70 1015.61 1016.67 1017.49 1018.33 1018.98 1019.66 1020.42 1021.17 1022.08 1022.77 1023.50 1023.96 1024.38 1024.72 1024.95
1018.90 1019.42 1019.17 1017.49 1016.61 1014.59 1012.24 1011.66 1010.86 1011.66 1010.96 1009.41 1009.66 1009.52 1009.70 1011.42 1012.08 1010.35 1010.24 1011.19 1011.66 1011.81 1012.20 1012.71 1013.26 1013.62 1013.93 1014.41 1014.96 1015.80 1016.57 1017.23 1017.78 1018.36 1019.12 1020.00 1020.84 1021.64 1022.42 1023.17 1023.84 1024.43 1024.88 1025.19
1018.71 1018.75 1018.09 1016.94 1015.67 1013.65 1011.54 1011.43 1011.29 1011.75 1010.18 1008.69 1009.20 1009.13 1009.35 1010.54 1010.31 1009.88 1010.45 1011.01 1011.34 1011.83 1012.49 1013.19 1013.73 1014.14 1014.43 1014.91 1015.53 1016.29 1016.92 1017.49 1018.02 1018.60 1019.42 1020.17 1020.82 1021.43 1022.11 1022.90 1023.46 1023.97 1024.80 1025.18
1017.93 1017.79 1016.86 1015.98 1014.43 1012.94 1011.34 1011.88 1011.17 1010.48 1010.58 1009.59 1009.17 1009.08 1009.70 1009.41 1009.68 1010.16 1010.56 1011.21 1011.87 1012.37 1013.01 1013.54 1014.08 1014.42 1014.88 1015.31 1015.68 1016.25 1016.86 1017.25 1017.87 1018.58 1019.41 1020.22 1020.96 1021.64 1022.28 1022.91 1023.58 1024.01 1024.28 1024.75
1017.41 1016.34 1015.81 1015.21 1013.27 1011.78 1011.09 1010.57 1009.37 1009.14 1009.73 1009.92 1010.03 1009.68 1009.86 1009.81 1009.73 1010.09 1010.68 1011.40 1012.05 1012.68 1013.43 1014.14 1014.78 1015.45 1015.81 1015.98 1016.34 1016.81 1017.32 1017.85 1018.58 1019.21 1020.09 1020.81 1021.35 1021.91 1022.38 1022.73 1023.41 1023.88 1024.29 1024.57
1016.04 1015.47 1015.47 1014.63 1012.91 1012.15 1011.22 1010.53 1009.78 1009.17 1009.27 1009.46 1009.94 1010.22 1010.15 1009.96 1009.78 1010.06 1010.75 1011.44 1012.34 1013.08 1013.81 1014.35 1015.09 1015.78 1016.37 1016.53 1016.78 1017.17 1017.78 1018.13 1018.77 1019.61 1020.31 1020.82 1021.51 1022.15 1022.52 1022.96 1023.41 1023.74 1024.11 1024.35
1015.65 1015.18 1014.43 1013.33 1012.05 1011.58 1010.97 1010.31 1009.50 1009.74 1009.83 1010.42 1010.56 1010.77 1010.61 1010.42 1010.11 1010.38 1010.90 1011.67 1012.38 1013.19 1014.17 1014.73 1015.37 1015.84 1016.41 1016.90 1017.40 1017.66 1017.98 1018.34 1018.96 1020.02 1020.82 1021.39 1021.77 1022.46 1023.04 1023.22 1023.34 1023.66 1024.03 1024.16
1014.92 1014.10 1014.05 1012.45 1011.40 1011.58 1010.80 1010.13 1009.50 1010.78 1011.14 1010.95 1010.57 1010.61 1010.63 1010.63 1010.72 1010.98 1011.10 1011.60 1012.26 1013.22 1014.03 1014.95 1015.55 1016.11 1016.73 1017.46 1017.90 1018.28 1018.25 1018.54 1018.94 1019.88 1020.41 1021.06 1021.81 1022.42 1023.01 1023.57 1023.85 1023.81 1024.15 1024.29
Thickness
5581 5578 5587 5596 5608 5607 5606 5604 5606 5610 5620 5620 5617 5619 5635 5644 5642 5643 5650 5653 5654 5659 5671 5671 5670 5670 5670 5669 5672 5673 5672 5671 5672 5673 5675 5676 5678 5678 5677 5677 5678 5677 5675 5672
5562 5571 5582 5589 5591 5593 5592 5591 5591 5602 5610 5607 5611 5613 5625 5635 5639 5646 5649 5652 5654 5656 5659 5661 5661 5660 5663 5662 5661 5662 5661 5662 5665 5664 5666 5668 5668 5667 5666 5665 5664 5664 5663 5661
5560 5568 5577 5577 5576 5579 5580 5579 5582 5591 5594 5596 5594 5598 5615 5635 5636 5643 5646 5653 5656 5660 5655 5650 5648 5651 5651 5654 5654 5652 5652 5652 5655 5655 5657 5658 5657 5656 5654 5653 5651 5649 5649 5647
5551 5564 5565 5566 5568 5571 5565 5576 5579 5578 5572 5564 5582 5556 5600 5620 5630 5637 5644 5651 5656 5653 5651 5648 5645 5640 5642 5643 5643 5643 5644 5643 5643 5646 5648 5651 5649 5643 5639 5638 5636 5635 5634 5633
5549 5552 5555 5560 5568 5569 5566 5570 5568 5567 5560 5558 5561 5551 5584 5610 5619 5635 5645 5647 5646 5647 5644 5646 5643 5638 5632 5629 5630 5630 5631 5629 5631 5633 5636 5636 5633 5630 5626 5624 5622 5620 5618 5617
5543 5552 5553 5559 5562 5563 5560 5554 5552 5544 5540 5531 5555 5553 5567 5603 5629 5638 5640 5643 5643 5641 5638 5639 5630 5624 5619 5615 5615 5615 5617 5615 5617 5619 5621 5620 5618 5614 5610 5607 5605 5602 5601 5599
5531 5538 5550 5556 5551 5553 5553 5544 5505 5501 5501 5522 5549 5545 5604 5600 5618 5626 5634 5637 5635 5633 5624 5619 5618 5614 5607 5604 5603 5604 5604 5601 5601 5602 5602 5602 5600 5599 5596 5593 5589 5586 5583 5580
5522 5515 5541 5550 5554 5551 5550 5546 5535 5529 5515 5517 5524 5541 5582 5593 5603 5616 5622 5624 5625 5621 5614 5611 5609 5604 5598 5595 5593 5593 5590 5587 5586 5586 5586 5584 5582 5580 5578 5575 5572 5569 5566 5563
5510 5522 5536 5539 5545 5549 5533 5536 5544 5518 5462 5479 5523 5544 5572 5589 5597 5604 5610 5611 5613 5610 5602 5599 5594 5593 5590 5585 5581 5580 5577 5574 5572 5572 5571 5569 5567 5564 5561 5559 5556 5553 5550 5547
5516 5513 5520 5528 5533 5531 5535 5540 5522 5502 5480 5467 5530 5534 5564 5586 5588 5591 5597 5597 5600 5597 5590 5586 5582 5579 5576 5572 5569 5566 5564 5561 5559 5558 5556 5554 5552 5548 5545 5542 5539 5536 5533 5530
5505 5509 5499 5511 5513 5528 5526 5525 5528 5523 5493 5489 5486 5538 5556 5576 5580 5580 5578 5585 5584 5580 5577 5574 5572 5567 5564 5560 5556 5555 5552 5550 5547 5545 5543 5540 5536 5533 5529 5525 5521 5518 5516 5514
5495 5491 5481 5500 5505 5510 5525 5528 5521 5515 5498 5499 5507 5547 5571 5568 5568 5569 5568 5570 5571 5567 5563 5560 5558 5554 5552 5549 5545 5543 5540 5538 5536 5533 5530 5526 5522 5519 5515 5510 5506 5503 5500 5497
5494 5473 5472 5476 5487 5480 5496 5509 5516 5515 5499 5507 5502 5550 5574 5565 5558 5555 5557 5558 5553 5554 5548 5545 5543 5542 5543 5540 5537 5533 5528 5526 5524 5520 5515 5510 5507 5503 5498 5494 5490 5485 5482 5478
5470 5482 5486 5495 5514 5497 5487 5504 5510 5508 5500 5532 5515 5553 5551 5548 5546 5545 5548 5543 5545 5542 5536 5535 5532 5534 5532 5530 5526 5522 5518 5514 5510 5506 5501 5495 5491 5486 5482 5478 5472 5467 5464 5460
5464 5469 5485 5501 5492 5493 5499 5500 5501 5495 5515 5494 5540 5533 5549 5540 5531 5533 5534 5531 5529 5527 5526 5525 5526 5529 5525 5520 5515 5511 5508 5504 5499 5494 5487 5482 5476 5470 5466 5461 5456 5451 5447 5443
5434 5466 5462 5475 5484 5478 5481 5478 5493 5504 5511 5498 5526 5528 5550 5544 5533 5524 5521 5517 5518 5521 5522 5522 5520 5520 5516 5514 5512 5508 5503 5497 5490 5484 5477 5468 5461 5455 5450 5444 5439 5433 5428 5423
5438 5436 5440 5473 5477 5455 5460 5491 5497 5500 5507 5515 5505 5551 5543 5530 5518 5523 5513 5511 5517 5516 5515 5517 5516 5515 5515 5514 5510 5503 5498 5487 5479 5473 5465 5457 5449 5441 5434 5427 5421 5415 5410 5405
5423 5425 5420 5415 5444 5462 5500 5516 5507 5504 5518 5512 5511 5529 5540 5541 5528 5510 5511 5518 5510 5509 5513 5513 5511 5512 5510 5508 5499 5492 5483 5475 5467 5460 5453 5444 5435 5427 5418 5411 5405 5399 5394 5388
5415 5409 5396 5426 5446 5453 5481 5500 5506 5495 5507 5517 5510 5529 5538 5520 5501 5505 5516 5509 5512 5510 5510 5511 5506 5501 5498 5494 5487 5477 5467 5459 5451 5444 5436 5428 5420 5411 5403 5395 5388 5382 5377 5371
5412 5403 5404 5382 5405 5451 5486 5497 5493 5484 5475 5517 5516 5522 5524 5491 5483 5521 5529 5500 5498 5498 5495 5492 5487 5483 5482 5476 5468 5462 5454 5447 5442 5435 5426 5415 5407 5398 5389 5380 5372 5365 5359 5354
5396 5388 5394 5408 5420 5431 5474 5475 5478 5458 5487 5515 5502 5511 5513 5488 5501 5506 5499 5494 5491 5487 5483 5471 5468 5466 5462 5456 5451 5445 5438 5432 5424 5416 5407 5398 5390 5382 5373 5364 5357 5350 5342 5336
5385 5381 5389 5399 5413 5410 5467 5458 5468 5475 5468 5485 5484 5485 5479 5483 5485 5483 5477 5479 5472 5470 5462 5456 5453 5450 5444 5440 5437 5431 5424 5417 5409 5400 5390 5380 5370 5363 5354 5347 5339 5333 5329 5323
5366 5395 5398 5397 5424 5441 5447 5462 5467 5463 5466 5466 5464 5466 5462 5468 5477 5472 5467 5461 5459 5452 5446 5440 5435 5428 5424 5422 5417 5410 5402 5396 5386 5377 5364 5355 5348 5341 5335 5329 5321 5316 5311 5307
5383 5388 5382 5393 5417 5419 5429 5436 5446 5454 5456 5458 5451 5450 5449 5459 5464 5464 5456 5450 5442 5435 5427 5419 5414 5409 5403 5399 5396 5388 5379 5372 5363 5353 5343 5336 5327 5319 5314 5309 5303 5298 5293 5289
5381 5383 5372 5382 5404 5407 5413 5425 5438 5434 5434 5431 5434 5436 5436 5439 5448 5447 5446 5436 5428 5418 5406 5401 5397 5393 5385 5377 5369 5364 5357 5351 5342 5328 5318 5311 5305 5298 5291 5288 5284 5280 5275 5273
5372 5388 5374 5391 5403 5391 5404 5419 5419 5409 5413 5419 5422 5429 5424 5424 5427 5428 5426 5421 5412 5401 5391 5384 5378 5370 5361 5351 5344 5338 5335 5329 5321 5309 5302 5294 5286 5280 5273 5267 5262 5261 5257 5253